W3BRL Weather Reports


time (UTC)temp
F
wind
direction
speed
knots
gust
knots
rain 1hr
in
rain 24hr
in
rain mn
in
humidity
%
barometer
mb
20260504045239 48 123 5.2 7.0 0.00 0.00 0.00 50 1011.4
20260504044737 47 190 7.0 7.8 0.00 0.00 0.00 51 1011.6
20260504044234 48 184 3.5 3.5 0.00 0.00 0.00 51 1011.6
20260504043731 48 195 3.5 3.5 0.00 0.00 0.00 50 1011.4
20260504043228 48 190 3.5 3.5 0.00 0.00 0.00 51 1011.3
20260504042726 48 177 1.7 1.7 0.00 0.00 0.00 50 1011.3
20260504042222 48 184 1.7 2.6 0.00 0.00 0.00 52 1011.4
20260504041718 48 195 1.7 1.7 0.00 0.00 0.00 50 1011.3
20260504041214 48 168 2.6 2.6 0.00 0.00 0.00 52 1011.4
20260504040711 47 165 1.7 2.6 0.00 0.00 0.00 52 1011.3
20260504040208 48 163 2.6 2.6 0.00 0.00 0.00 52 1011.4
20260504035704 47 165 1.7 2.6 0.00 0.00 0.00 51 1011.1
20260504035202 48 160 2.6 2.6 0.00 0.00 0.00 52 1011.4
20260504034659 48 159 3.5 5.2 0.00 0.00 0.00 51 1011.3
20260504034155 48 157 1.7 1.7 0.00 0.00 0.00 52 1011.3
20260504033653 48 180 3.5 5.2 0.00 0.00 0.00 53 1011.4
20260504033150 48 172 3.5 3.5 0.00 0.00 0.00 52 1011.4
20260504032647 48 167 1.7 2.6 0.00 0.00 0.00 51 1011.4
20260504032144 48 172 1.7 1.7 0.00 0.00 0.00 51 1011.4
20260504031641 49 161 2.6 2.6 0.00 0.00 0.00 50 1011.4
20260504031138 50 171 1.7 1.7 0.00 0.00 0.00 47 1011.3
20260504030634 50 192 3.5 3.5 0.00 0.00 0.00 45 1011.5
20260504030131 50 192 1.7 2.6 0.00 0.00 0.00 45 1011.3
20260504025628 51 187 2.6 3.5 0.00 0.00 0.00 45 1011.5
20260504025125 51 202 3.5 3.5 0.00 0.00 0.00 45 1011.5
20260504024622 50 199 1.7 2.6 0.00 0.00 0.00 46 1011.5
20260504024118 51 180 2.6 3.5 0.00 0.00 0.00 45 1011.5
20260504023615 51 178 1.7 2.6 0.00 0.00 0.00 45 1011.5
20260504023111 51 174 0.9 0.9 0.00 0.00 0.00 45 1011.7
20260504022608 51 191 4.3 6.1 0.00 0.00 0.00 45 1011.8
20260504022103 51 174 2.6 2.6 0.00 0.00 0.00 45 1011.7
20260504021602 51 191 2.6 3.5 0.00 0.00 0.00 44 1011.8
20260504021058 51 188 1.7 1.7 0.00 0.00 0.00 45 1011.7
20260504020555 51 178 2.6 3.5 0.00 0.00 0.00 45 1011.7
20260504020051 51 193 2.6 2.6 0.00 0.00 0.00 44 1011.7
20260504015548 51 176 1.7 1.7 0.00 0.00 0.00 44 1011.6
20260504015044 51 184 3.5 3.5 0.00 0.00 0.00 43 1011.8
20260504014540 51 173 3.5 3.5 0.00 0.00 0.00 44 1011.8
20260504014038 52 173 1.7 2.6 0.00 0.00 0.00 42 1011.8
20260504013535 0 0.0 0.0 0.00 0.00 0.00 1011.6
20260504013032 52 191 2.6 2.6 0.00 0.00 0.00 41 1011.6
20260504012530 52 191 2.6 2.6 0.00 0.00 0.00 41 1011.5
20260504012027 52 181 0.9 0.9 0.00 0.00 0.00 41 1011.3
20260504011524 53 174 1.7 1.7 0.00 0.00 0.00 41 1011.3
20260504011020 53 181 2.6 3.5 0.00 0.00 0.00 40 1011.4
20260504010516 53 190 1.7 1.7 0.00 0.00 0.00 40 1011.2
20260504010012 53 188 3.5 3.5 0.00 0.00 0.00 40 1011.4
20260504005509 53 184 1.7 2.6 0.00 0.00 0.00 40 1011.4
20260504005006 53 197 4.3 6.1 0.00 0.00 0.00 40 1011.4
20260504004504 53 198 2.6 2.6 0.00 0.00 0.00 39 1011.4
20260504004000 54 176 1.7 1.7 0.00 0.00 0.00 39 1011.3
20260504003456 54 211 2.6 3.5 0.00 0.00 0.00 39 1011.5
20260504002954 54 193 2.6 2.6 0.00 0.00 0.00 38 1011.2
20260504002451 54 164 2.6 2.6 0.00 0.00 0.00 38 1011.3
20260504001948 55 198 4.3 5.2 0.00 0.00 0.00 37 1011.4
20260504001445 55 201 2.6 3.5 0.00 0.00 0.00 37 1011.3
20260504000942 55 201 3.5 5.2 0.00 0.00 0.00 37 1011.3
20260504000439 55 225 7.0 7.8 0.00 0.00 0.00 36 1011.3
20260503235936 55 223 6.1 8.7 0.00 0.00 0.00 36 1011.2
20260503235434 55 226 4.3 6.1 0.00 0.00 0.00 36 1011.3
20260503234931 55 220 5.2 6.1 0.00 0.00 0.00 35 1011.2
20260503234428 56 192 2.6 2.6 0.00 0.00 0.00 36 1011.3
20260503233927 56 175 3.5 5.2 0.00 0.00 0.00 35 1011.4
20260503233423 56 223 4.3 6.1 0.00 0.00 0.00 35 1011.4
20260503232919 56 172 2.6 3.5 0.00 0.00 0.00 34 1011.4
20260503232416 56 271 9.6 11.3 0.00 0.00 0.00 34 1011.4
20260503231914 56 220 4.3 6.1 0.00 0.00 0.00 34 1011.4
20260503231411 56 174 3.5 5.2 0.00 0.00 0.00 34 1011.4
20260503230907 57 176 5.2 7.0 0.00 0.00 0.00 34 1011.4
20260503230404 57 183 5.2 7.8 0.00 0.00 0.00 34 1011.5
20260503225902 57 233 8.7 12.2 0.00 0.00 0.00 33 1011.4
20260503225357 57 206 2.6 5.2 0.00 0.00 0.00 34 1011.4
20260503224854 57 204 4.3 7.0 0.00 0.00 0.00 34 1011.5
20260503224351 57 234 6.1 7.0 0.00 0.00 0.00 33 1011.4
20260503223849 57 241 5.2 6.1 0.00 0.00 0.00 34 1011.5
20260503223347 57 174 2.6 2.6 0.00 0.00 0.00 34 1011.6
20260503222842 57 172 8.7 11.3 0.00 0.00 0.00 33 1011.6
20260503222341 57 227 7.8 8.7 0.00 0.00 0.00 33 1011.5
20260503221838 58 202 3.5 6.1 0.00 0.00 0.00 33 1011.6
20260503221337 59 274 5.2 8.7 0.00 0.00 0.00 32 1011.7
20260503220832 59 238 7.0 12.2 0.00 0.00 0.00 31 1011.6
20260503220329 59 236 6.1 7.8 0.00 0.00 0.00 32 1011.6
20260503215826 58 213 5.2 7.8 0.00 0.00 0.00 34 1011.5
20260503215323 59 183 1.7 2.6 0.00 0.00 0.00 34 1011.3
20260503214821 57 223 5.2 6.1 0.00 0.00 0.00 33 1011.5
20260503214318 57 167 5.2 7.8 0.00 0.00 0.00 34 1011.4
20260503213815 58 198 3.5 3.5 0.00 0.00 0.00 34 1011.4
20260503213313 59 231 5.2 7.0 0.00 0.00 0.00 32 1011.4
20260503212810 58 202 4.3 5.2 0.00 0.00 0.00 33 1011.3
20260503212308 58 283 7.0 7.8 0.00 0.00 0.00 32 1011.5
20260503211805 58 191 1.7 2.6 0.00 0.00 0.00 34 1011.4
20260503211301 58 206 6.1 7.8 0.00 0.00 0.00 33 1011.5
20260503210801 58 222 5.2 7.8 0.00 0.00 0.00 33 1011.6
20260503210259 57 258 2.6 5.2 0.00 0.00 0.00 33 1011.4
20260503205754 58 222 5.2 7.0 0.00 0.00 0.00 33 1011.6
20260503205251 57 209 3.5 3.5 0.00 0.00 0.00 33 1011.7
20260503204747 57 186 2.6 5.2 0.00 0.00 0.00 34 1011.8
20260503204245 58 243 8.7 12.2 0.00 0.00 0.00 32 1011.7
20260503203742 57 243 9.6 11.3 0.00 0.00 0.00 32 1011.9
20260503203240 58 177 2.6 3.5 0.00 0.00 0.00 33 1011.9
20260503202737 57 201 5.2 11.3 0.00 0.00 0.00 34 1011.9
20260503202234 57 248 5.2 7.0 0.00 0.00 0.00 33 1011.8
20260503201732 59 274 6.1 7.8 0.00 0.00 0.00 31 1012.0
20260503201229 57 185 9.6 11.3 0.00 0.00 0.00 33 1011.8
20260503200726 58 212 2.6 3.5 0.00 0.00 0.00 32 1012.0
20260503200222 58 250 6.1 7.0 0.00 0.00 0.00 32 1012.2
20260503195719 58 212 4.3 6.1 0.00 0.00 0.00 33 1012.1
20260503195216 57 208 7.0 9.6 0.00 0.00 0.00 32 1012.1
20260503194713 57 210 3.5 5.2 0.00 0.00 0.00 32 1012.4
20260503194209 57 256 4.3 7.0 0.00 0.00 0.00 33 1012.3
20260503193705 57 286 9.6 12.2 0.00 0.00 0.00 32 1012.3
20260503193201 58 220 4.3 6.1 0.00 0.00 0.00 32 1012.5
20260503192657 58 238 4.3 7.0 0.00 0.00 0.00 31 1012.5
20260503192152 58 244 7.8 11.3 0.00 0.00 0.00 32 1012.6
20260503191649 58 186 7.0 9.6 0.00 0.00 0.00 31 1012.6
20260503191147 57 187 2.6 3.5 0.00 0.00 0.00 32 1013.0
20260503190643 58 301 7.0 9.6 0.00 0.00 0.00 32 1012.9
20260503190140 57 204 3.5 6.1 0.00 0.00 0.00 32 1013.0
20260503185637 56 168 5.2 7.0 0.00 0.00 0.00 33 1013.1
20260503185132 56 242 2.6 5.2 0.00 0.00 0.00 34 1013.3
20260503184627 55 186 7.0 8.7 0.00 0.00 0.00 35 1013.3
20260503184124 57 202 5.2 8.7 0.00 0.00 0.00 34 1013.3
20260503183621 57 203 4.3 6.1 0.00 0.00 0.00 33 1013.3
20260503183118 56 192 3.5 5.2 0.00 0.00 0.00 34 1013.4
20260503182616 57 236 7.0 9.6 0.00 0.00 0.00 33 1013.4
20260503182114 57 256 4.3 5.2 0.00 0.00 0.00 32 1013.5
20260503181611 56 306 7.0 8.7 0.00 0.00 0.00 33 1013.4
20260503181108 55 205 3.5 3.5 0.00 0.00 0.00 34 1013.4
20260503180605 54 215 10.4 13.0 0.00 0.00 0.00 35 1013.6
20260503175559 55 292 7.0 7.0 0.00 0.00 0.00 33 1013.6
20260503175056 55 241 9.6 11.3 0.00 0.00 0.00 33 1013.8
20260503174553 55 118 7.8 12.2 0.00 0.00 0.00 33 1013.8
20260503174050 56 296 6.1 7.0 0.00 0.00 0.00 33 1013.8
20260503173545 55 206 5.2 7.0 0.00 0.00 0.00 33 1013.9
20260503173041 54 151 3.5 5.2 0.00 0.00 0.00 33 1014.1
20260503172539 54 222 8.7 11.3 0.00 0.00 0.00 34 1013.9
20260503172036 54 315 4.3 7.8 0.00 0.00 0.00 35 1013.9
20260503171532 53 210 4.3 6.1 0.00 0.00 0.00 35 1014.1
20260503171030 54 325 7.8 8.7 0.00 0.00 0.00 34 1014.0
20260503170526 55 313 4.3 6.1 0.00 0.00 0.00 33 1014.3
20260503150918 50 236 6.1 7.8 0.00 0.00 0.00 39 1014.8
20260503150415 50 331 7.0 8.7 0.00 0.00 0.00 37 1015.0
20260503131308 44 196 3.5 5.2 0.00 0.00 0.00 59 1015.3
20260503130806 44 266 2.6 5.2 0.00 0.00 0.00 60 1015.3
20260503130303 44 198 3.5 3.5 0.00 0.00 0.00 60 1015.2
20260503110657 34 164 0.9 0.9 0.00 0.00 0.00 88 1014.2
20260503110154 33 186 0.9 0.9 0.00 0.00 0.00 88 1014.4
20260503100120 32 176 0.0 0.0 0.00 0.00 0.00 89 1013.6
20260503081510 35 172 0.9 0.9 0.00 0.00 0.00 82 1013.6
20260503081007 35 184 1.7 2.6 0.00 0.00 0.00 82 1013.6
20260503080503 35 176 0.9 0.9 0.00 0.00 0.00 82 1013.6
20260503072939 36 174 0.0 0.0 0.00 0.00 0.00 80 1013.4
20260503072437 36 186 1.7 1.7 0.00 0.00 0.00 81 1013.3
20260503071934 36 193 1.7 2.6 0.00 0.00 0.00 80 1013.4
20260503071431 36 176 0.9 0.9 0.00 0.00 0.00 80 1013.2
20260503070927 36 185 1.7 1.7 0.00 0.00 0.00 80 1013.3
20260503070424 36 203 1.7 2.6 0.00 0.00 0.00 80 1013.4
20260503054838 36 190 0.9 1.7 0.00 0.00 0.00 81 1013.3
20260503054333 36 183 1.7 1.7 0.00 0.00 0.00 80 1013.5
20260503053831 36 207 0.9 0.9 0.00 0.00 0.00 80 1013.4
20260503053330 36 203 1.7 1.7 0.00 0.00 0.00 80 1013.5
20260503052826 36 225 1.7 2.6 0.00 0.00 0.00 80 1013.5
20260503052323 36 184 1.7 1.7 0.00 0.00 0.00 79 1013.5
20260503051819 36 210 1.7 2.6 0.00 0.00 0.00 78 1013.6
20260503051315 36 195 1.7 1.7 0.00 0.00 0.00 77 1013.6
20260503050812 36 188 1.7 1.7 0.00 0.00 0.00 77 1013.5
20260503050308 36 197 1.7 1.7 0.00 0.00 0.00 76 1013.7
20260503045806 36 205 1.7 1.7 0.00 0.00 0.00 75 1013.9